Skip Page Navigation
NASA JPL Caltech
NASA Logo - Jet Propulsion Laboratory + View the NASA Portal
+ Near-Earth Object (NEO) Program
Search JPL
JPL Home Earth Solar System Stars & Galaxies Technology
JPL Solar System Dynamics
BODIES ORBITS EPHEMERIDES TOOLS PHYSICAL DATA DISCOVERY FAQ SITE MAP
JPL Small-Body Database Browser
Search: [ help ]  
1671 Chaika (1934 TD)
Classification: Main-belt Asteroid          SPK-ID: 2001671
Ephemeris | Orbit Diagram | Orbital Elements | Physical Parameters | Discovery Circumstances ]

[ hide orbit diagram ]
Orbit Diagram
Note: Make sure you have Java enabled on your browser to see the applet. This applet is provided as a 3D orbit visualization tool. The applet was implemented using 2-body methods, and hence should not be used for determining accurate long-term trajectories (over several years or decades) or planetary encounter circumstances. For accurate long-term ephemerides, please instead use our Horizons system.
Orbit Viewer

Additional Notes: the orbits shown in the applet are color coded. The planets are white lines, and the asteroid/comet is a blue line. The bright white line indicates the portion of the orbit that is above the ecliptic plane, and the darker portion is below the ecliptic plane. Likewise for the asteroid/comet orbit, the light blue indicates the portion above the ecliptic plane, and the dark blue the portion below the ecliptic plane.

Orbit Viewer applet originally written and kindly provided by Osamu Ajiki (AstroArts), and further modified by Ron Baalke (JPL).


Orbital Elements at Epoch 2456400.5 (2013-Apr-18.0) TDB
Reference: MPO233520 (heliocentric ecliptic J2000)
 Element Value Uncertainty (1-sigma)   Units 
e 0.2566142 n/a  
a 2.5877780 n/a AU
q 1.9237174 n/a AU
i 3.96309 n/a deg
node 177.20816 n/a deg
peri 250.51773 n/a deg
M 278.93984 n/a deg
tp 2456742.8685913
(2014-Mar-26.36859130)
n/a JED
period 1520.5088772
4.16
n/a
n/a
d
yr
n 0.23676284 n/a deg/d
Q 3.2518386 n/a AU
  Orbit Determination Parameters
   # obs. used (total)      1147  
   first obs. used      1930-??-??  
   last obs. used      2012-06-23  
   # oppositions      28  
   planetary ephem.      DE403  
   condition code      0  
   fit RMS      0.55  
   data source      MPC:mpn  
   producer      MPCLINUX  

Additional Information
 T_jup = 3.371 

Ephemeris | Orbit Diagram | Orbital Elements | Physical Parameters | Discovery Circumstances ]

Physical Parameter Table
Parameter Symbol Value Units Sigma Reference Notes
absolute magnitude H 12.0 mag n/a PDS3 (MPC 17263)  
rotation period rot_per 3.7718 h n/a Asteroid Lightcurve DataBase (Rev. 2013-May-01) Published Reference List:
[Behrend, R. (2005) Observatoire de Geneve web site, http://obswww.unige.ch/~behrend/page_cou.html]
[Menke, J.; Cooney, W.; Gross, J.; Terrell, D. (2008) Minor Planet Bul. 35, 155-160.]

1671 Chaika (1934 TD)          Discovered 1934-Oct-03 by Neujmin, G. at Simeis (094)
Reference: DISCOVERY.DBLast Updated: 2003-08-29

Alternate Designations
 1934 TD = 1930 WE = 1952 BX = 1955 XA = 1963 SO = 1971 RC = A907 GM 
Ephemeris | Orbit Diagram | Orbital Elements | Physical Parameters | Discovery Circumstances ]
ABOUT SSD CREDITS/AWARDS PRIVACY/COPYRIGHT GLOSSARY LINKS
FirstGov 2013-May-21 18:20 UT
(server date/time)  
NASA Home Page
Site Manager:   Donald K. Yeomans
Webmaster  Alan B. Chamberlin